Norwood, MA

6:50 PM EST on November 18, 2017 (GMT -0500)
Norwood Memorial

Weather History for KOWD - April, 2014

Change the Weather History Date:

Wednesday, April 16, 2014

  Actual Average Record
Temperature  
Mean Temperature 38 °F -  
Max Temperature 46 °F 58 °F 91 °F (2012)
Min Temperature 32 °F 35 °F 24 °F (2005)
Degree Days  
Heating Degree Days 26    
Moisture  
Dew Point 27 °F    
Average Humidity 70    
Maximum Humidity 96    
Minimum Humidity 37    
Precipitation  
Precipitation 0.39 in - - ()
Sea Level Pressure  
Sea Level Pressure 30.10 in    
Wind  
Wind Speed 11 mph (NW)    
Max Wind Speed 17 mph    
Max Gust Speed 28 mph    
Visibility 7 miles    
Events Rain , Snow    
Averages and records for this station are not official NWS values.
T = Trace of Precipitation, MM = Missing Value Source: NWS Daily Summary

Daily Weather History Graph

Daily Weather History Graph

Search for Another Location

Airport or City:

Trip Planner

Search our weather history database for the weather conditions in past years. The results will help you decide how hot, cold, wet, or windy it might be!

Date:

Astronomy

Apr. 16, 2014 Rise Set
Actual Time 6:02 AM EDT 7:27 PM EDT
Civil Twilight 5:33 AM EDT 7:56 PM EDT
Nautical Twilight 4:58 AM EDT 8:31 PM EDT
Astronomical Twilight 4:21 AM EDT 9:09 PM EDT
Moon 9:09 PM EDT (4/16) 6:46 AM EDT (4/16)
Length of Visible Light 14h 23m
Length of Day
13h 24m
Full, 98% of the Moon is Illuminated
Apr 16
Full
Apr 22
Last Quarter
Apr 29
New
May 6
First Quarter
May 14
Full

Hourly Weather History & Observations

Time (EDT) Temp. Windchill Dew Point Humidity Pressure Visibility Wind Dir Wind Speed Gust Speed Precip Events Conditions
12:12 AM 43.0 °F 35.7 °F 39.9 °F 89% 29.74 in 8.0 mi WNW 15.0 mph 27.6 mph 0.01 in Rain Light Rain
12:28 AM 42.1 °F 36.6 °F 39.9 °F 92% 29.76 in 4.0 mi WNW 9.2 mph - 0.02 in Rain Light Rain
12:36 AM 42.1 °F 35.7 °F 39.9 °F 92% 29.78 in 4.0 mi West 11.5 mph - 0.03 in Rain Light Rain
12:53 AM 41.0 °F 33.5 °F 37.9 °F 89% 29.78 in 4.0 mi WNW 13.8 mph - 0.06 in Rain Light Rain
1:53 AM 39.0 °F 33.4 °F 37.0 °F 93% 29.79 in 6.0 mi WNW 8.1 mph - 0.04 in Rain Light Rain
2:53 AM 37.0 °F 29.8 °F 35.1 °F 93% 29.82 in 7.0 mi WNW 10.4 mph - 0.05 in Rain Light Rain
3:24 AM 35.1 °F 26.9 °F 33.1 °F 92% 29.85 in 4.0 mi WNW 11.5 mph - 0.04 in Rain Rain
3:35 AM 35.1 °F 27.9 °F 33.1 °F 92% 29.86 in 4.0 mi WNW 9.2 mph - 0.06 in Snow Light Snow
3:50 AM 33.8 °F 25.3 °F 32.0 °F 93% 29.84 in 1.8 mi WNW 11.5 mph 20.7 mph 0.10 in Snow Light Snow
3:53 AM 34.0 °F 25.0 °F 32.0 °F 92% 29.84 in 1.5 mi WNW 12.7 mph - 0.11 in Snow Light Snow
4:03 AM 34.0 °F 26.0 °F 32.0 °F 92% 29.85 in 3.0 mi NW 10.4 mph 18.4 mph 0.04 in Rain Rain
4:26 AM 33.1 °F 23.0 °F 32.0 °F 96% 29.90 in 1.8 mi WNW 15.0 mph - 0.12 in Snow Light Snow
4:30 AM 33.1 °F 22.6 °F 32.0 °F 96% 29.91 in 1.5 mi WNW 16.1 mph 21.9 mph 0.12 in Snow Light Snow
4:39 AM 33.1 °F 23.9 °F 32.0 °F 96% 29.87 in 2.0 mi NNW 12.7 mph 21.9 mph 0.13 in Snow Light Snow
4:44 AM 33.1 °F 24.9 °F 30.9 °F 92% 29.87 in 3.0 mi NNW 10.4 mph 21.9 mph 0.13 in Snow Light Snow
4:53 AM 33.1 °F 26.1 °F 30.9 °F 92% 29.86 in 5.0 mi NNW 8.1 mph 18.4 mph 0.13 in Snow Light Snow
5:01 AM 33.1 °F 26.1 °F 30.9 °F 92% 29.90 in 9.0 mi WNW 8.1 mph - 0.00 in   Overcast
5:53 AM 34.0 °F 26.0 °F 30.0 °F 85% 29.98 in 10.0 mi WNW 10.4 mph - 0.00 in   Overcast
6:53 AM 33.1 °F 22.6 °F 25.0 °F 72% 30.06 in 10.0 mi NW 16.1 mph 23.0 mph N/A   Mostly Cloudy
7:53 AM 32.0 °F 23.0 °F 23.0 °F 69% 30.14 in 10.0 mi NW 11.5 mph 23.0 mph N/A   Mostly Cloudy
8:53 AM 32.0 °F 22.5 °F 19.9 °F 61% 30.19 in 10.0 mi NW 12.7 mph 23.0 mph N/A   Clear
9:53 AM 34.0 °F 23.4 °F 18.0 °F 52% 30.22 in 10.0 mi NNW 17.3 mph 26.5 mph N/A   Partly Cloudy
10:53 AM 36.0 °F 26.3 °F 18.0 °F 48% 30.26 in 10.0 mi NNW 16.1 mph 27.6 mph N/A   Clear
11:53 AM 37.9 °F 29.2 °F 19.0 °F 47% 30.29 in 10.0 mi NNW 15.0 mph 25.3 mph N/A   Clear
12:53 PM 41.0 °F 33.1 °F 21.9 °F 47% 30.32 in 10.0 mi NW 15.0 mph 20.7 mph N/A   Clear
2:53 PM 43.0 °F 37.7 °F 21.9 °F 43% 30.36 in 10.0 mi WNW 9.2 mph 21.9 mph N/A   Clear
3:53 PM 45.0 °F 40.6 °F 21.9 °F 40% 30.38 in 10.0 mi WNW 8.1 mph 16.1 mph N/A   Clear
4:53 PM 45.0 °F 39.3 °F 21.0 °F 39% 30.39 in 10.0 mi NW 11.5 mph - N/A   Clear
5:53 PM 45.0 °F 40.6 °F 19.9 °F 37% 30.42 in 10.0 mi NNW 8.1 mph 18.4 mph N/A   Clear
6:53 PM 43.0 °F 38.2 °F 18.0 °F 37% 30.45 in 10.0 mi North 8.1 mph - N/A   Clear
7:53 PM 39.9 °F 35.8 °F 16.0 °F 38% 30.50 in 10.0 mi North 5.8 mph - N/A   Clear
8:53 PM 37.0 °F 32.4 °F 17.1 °F 44% 30.54 in 10.0 mi North 5.8 mph - N/A   Clear
9:53 PM 36.0 °F 32.1 °F 14.0 °F 41% 30.57 in 10.0 mi NNE 4.6 mph - N/A   Clear
10:53 PM 35.1 °F 29.3 °F 14.0 °F 42% 30.58 in 10.0 mi North 6.9 mph - N/A   Clear
11:53 PM 34.0 °F - 15.1 °F 46% 30.61 in 10.0 mi Calm Calm - N/A   Clear